Location: Unspecified
(0.0000°N, 0.0000°E)
Time: 00:14:32
(UTC+00:00)

COSMOS-2408 - Pass Details

Date: 11 March 2024
Orbit: 1469 x 1496 km, 82.5° (Epoch: 28 April)

Event Time Altitude Azimuth Distance (km) Brightness Sun altitude
Rises 19:27:09 0° 154° (SSE) 4,589 9.8 -19.3°
Reaches altitude 10° 19:30:59 10° 138° (SE) 3,611 9.1 -20.3°
Enters shadow 19:31:41 12° 135° (SE) 3,457 9.0 -20.4°
